Fountain, MN

7:58 PM CDT on September 26, 2016 (GMT -0500)
Preston

Weather History for KFKA - October, 2013

Change the Weather History Date:

Wednesday, October 16, 2013

  Actual Average (KRST) Record (KRST)
Temperature  
Mean Temperature 42 °F 48 °F  
Max Temperature 48 °F 59 °F 84 °F (1953)
Min Temperature 36 °F 38 °F 21 °F (1937)
Degree Days  
Heating Degree Days 23 17  
Month to date heating degree days 225  
Since 1 July heating degree days 440  
Cooling Degree Days 0 0  
Month to date cooling degree days 4  
Year to date cooling degree days 583  
Moisture  
Dew Point 42 °F    
Average Humidity 92    
Maximum Humidity 99    
Minimum Humidity 84    
Precipitation  
Precipitation 0.00 in 0.06 in 2.35 in (1911)
Month to date precipitation 1.28  
Year to date precipitation 28.92  
Snow  
Snow 0.00 in 0.00 in 0.50 in (1937)
Month to date snowfall 0.2  
Since 1 July snowfall 0.2  
Snow Depth -    
Sea Level Pressure  
Sea Level Pressure 29.89 in    
Wind  
Wind Speed 10 mph (NW)    
Max Wind Speed 17 mph    
Max Gust Speed 22 mph    
Visibility 9 miles    
Events      
T = Trace of Precipitation, MM = Missing Value Source: NWS Daily Summary

Daily Weather History Graph

Daily Weather History Graph

Search for Another Location

Airport or City:

Trip Planner

Search our weather history database for the weather conditions in past years. The results will help you decide how hot, cold, wet, or windy it might be!

Date:

Astronomy

Oct. 16, 2013 Rise Set
Actual Time 7:24 AM CDT 6:23 PM CDT
Civil Twilight 6:55 AM CDT 6:52 PM CDT
Nautical Twilight 6:22 AM CDT 7:25 PM CDT
Astronomical Twilight 5:48 AM CDT 7:58 PM CDT
Moon 5:06 PM CDT (10/16) 4:48 AM CDT (10/16)
Length of Visible Light 11h 56m
Length of Day
10h 58m
Waxing Gibbous, 94% of the Moon is Illuminated
Oct 16
Waxing Gibbous
Oct 18
Full
Oct 26
Last Quarter
Nov 3
New
Nov 9
First Quarter

Hourly Weather History & Observations

Time (CDT) Temp. Windchill Dew Point Humidity Pressure Visibility Wind Dir Wind Speed Gust Speed Precip Events Conditions
12:08 AM 48.6 °F - 47.8 °F 97% 29.77 in 7.0 mi WNW 9.2 mph - N/A   Overcast
12:28 AM 48.6 °F - 47.8 °F 97% 29.77 in 10.0 mi NW 8.1 mph - N/A   Overcast
12:49 AM 48.6 °F - 47.7 °F 97% 29.77 in 10.0 mi WNW 10.4 mph - N/A   Overcast
1:08 AM 48.7 °F - 47.8 °F 97% 29.78 in 7.0 mi NW 11.5 mph - N/A   Overcast
1:29 AM 48.7 °F - 48.2 °F 98% 29.79 in 5.0 mi NW 9.2 mph - N/A   Overcast
1:48 AM 48.6 °F - 47.8 °F 97% 29.79 in 7.0 mi NW 11.5 mph - N/A   Overcast
2:09 AM 48.6 °F - 47.3 °F 95% 29.80 in 10.0 mi NW 13.8 mph - N/A   Overcast
2:29 AM 48.2 °F - 47.3 °F 97% 29.80 in 10.0 mi WNW 13.8 mph 17.3 mph N/A   Overcast
2:48 AM 47.5 °F - 46.6 °F 97% 29.81 in 4.0 mi NW 13.8 mph 20.7 mph N/A   Overcast
3:09 AM 47.3 °F - 46.4 °F 97% 29.81 in 3.0 mi NW 13.8 mph - N/A   Overcast
3:28 AM 46.9 °F - 46.4 °F 98% 29.81 in 2.5 mi NW 11.5 mph 17.3 mph N/A   Overcast
3:48 AM 46.4 °F 40.1 °F 45.7 °F 97% 29.81 in 3.0 mi NW 15.0 mph 20.7 mph N/A   Overcast
4:09 AM 45.9 °F 38.8 °F 45.0 °F 97% 29.82 in 5.0 mi NW 17.3 mph 21.9 mph N/A   Overcast
4:28 AM 45.7 °F 39.1 °F 44.8 °F 97% 29.82 in 7.0 mi NNW 15.0 mph 18.4 mph N/A   Overcast
4:48 AM 45.1 °F 38.4 °F 44.2 °F 97% 29.84 in 7.0 mi NNW 15.0 mph 18.4 mph N/A   Overcast
5:09 AM 45.0 °F 38.9 °F 43.9 °F 96% 29.84 in 7.0 mi NNW 12.7 mph 21.9 mph N/A   Overcast
5:28 AM 44.8 °F 38.0 °F 43.7 °F 96% 29.84 in 5.0 mi NNW 15.0 mph 19.6 mph N/A   Overcast
5:48 AM 44.8 °F 38.7 °F 43.5 °F 95% 29.85 in 10.0 mi NNW 12.7 mph 18.4 mph N/A   Overcast
6:08 AM 44.8 °F 39.0 °F 43.3 °F 95% 29.85 in 7.0 mi NNW 11.5 mph 16.1 mph N/A   Overcast
6:29 AM 44.8 °F 39.9 °F 43.2 °F 94% 29.86 in 10.0 mi NNW 9.2 mph - N/A   Overcast
6:48 AM 44.6 °F 39.7 °F 43.2 °F 95% 29.87 in 7.0 mi NNW 9.2 mph - N/A   Overcast
7:09 AM 44.6 °F 39.2 °F 43.3 °F 95% 29.87 in 7.0 mi NNW 10.4 mph 16.1 mph N/A   Overcast
7:28 AM 44.6 °F 39.7 °F 42.8 °F 93% 29.87 in 10.0 mi NNW 9.2 mph - N/A   Overcast
7:49 AM 44.6 °F 38.8 °F 42.8 °F 93% 29.88 in 10.0 mi NNW 11.5 mph 16.1 mph N/A   Overcast
8:08 AM 44.2 °F 38.4 °F 42.4 °F 93% 29.89 in 7.0 mi NNW 11.5 mph - N/A   Overcast
8:29 AM 44.2 °F 39.2 °F 42.3 °F 93% 29.89 in 7.0 mi NNW 9.2 mph - N/A   Overcast
8:49 AM 44.2 °F 39.7 °F 42.3 °F 93% 29.90 in 10.0 mi NNW 8.1 mph - N/A   Overcast
9:08 AM 44.6 °F 39.2 °F 42.4 °F 92% 29.90 in 10.0 mi North 10.4 mph - N/A   Overcast
9:29 AM 44.8 °F 39.0 °F 42.4 °F 91% 29.91 in 10.0 mi NNW 11.5 mph - N/A   Overcast
9:48 AM 45.0 °F 39.3 °F 42.6 °F 91% 29.91 in 10.0 mi NNW 11.5 mph 16.1 mph N/A   Overcast
10:08 AM 45.1 °F 40.8 °F 42.8 °F 91% 29.92 in 10.0 mi NNW 8.1 mph - N/A   Overcast
10:28 AM 45.1 °F 40.3 °F 42.3 °F 90% 29.92 in 10.0 mi North 9.2 mph - N/A   Overcast
10:48 AM 45.5 °F 40.8 °F 42.4 °F 89% 29.92 in 10.0 mi North 9.2 mph - N/A   Overcast
11:09 AM 45.5 °F 39.9 °F 42.4 °F 89% 29.92 in 10.0 mi North 11.5 mph - N/A   Overcast
11:28 AM 45.9 °F 41.2 °F 42.8 °F 89% 29.92 in 10.0 mi North 9.2 mph - N/A   Overcast
11:49 AM 45.9 °F 40.8 °F 42.6 °F 88% 29.93 in 10.0 mi NW 10.4 mph - N/A   Overcast
12:08 PM 46.0 °F 41.4 °F 42.6 °F 88% 29.93 in 10.0 mi NNW 9.2 mph - N/A   Overcast
12:28 PM 46.8 °F - 42.6 °F 85% 29.93 in 10.0 mi NNW 9.2 mph - N/A   Overcast
12:48 PM 46.4 °F 42.4 °F 42.8 °F 87% 29.93 in 10.0 mi NW 8.1 mph - N/A   Overcast
1:09 PM 46.6 °F - 42.4 °F 85% 29.93 in 10.0 mi WNW 11.5 mph - N/A   Overcast
1:29 PM 46.2 °F 41.7 °F 42.4 °F 87% 29.93 in 10.0 mi NW 9.2 mph - N/A   Overcast
1:48 PM 46.4 °F 41.5 °F 42.6 °F 87% 29.93 in 10.0 mi NW 10.4 mph - N/A   Overcast
2:09 PM 46.6 °F - 42.8 °F 87% 29.92 in 10.0 mi NW 10.4 mph - N/A   Overcast
2:28 PM 45.7 °F 40.6 °F 42.8 °F 90% 29.92 in 10.0 mi NW 10.4 mph - N/A   Overcast
2:48 PM 46.2 °F 42.2 °F 43.0 °F 88% 29.92 in 10.0 mi NW 8.1 mph - N/A   Overcast
3:09 PM 47.3 °F - 42.8 °F 84% 29.93 in 10.0 mi NW 6.9 mph - N/A   Overcast
3:28 PM 46.0 °F 40.6 °F 41.9 °F 85% 29.93 in 10.0 mi NW 11.5 mph - N/A   Overcast
3:48 PM 46.0 °F 41.4 °F 42.1 °F 86% 29.93 in 10.0 mi NW 9.2 mph - N/A   Overcast
4:09 PM 45.1 °F 39.9 °F 41.9 °F 88% 29.93 in 10.0 mi WNW 10.4 mph - N/A   Overcast
4:28 PM 45.0 °F 39.7 °F 41.2 °F 87% 29.93 in 10.0 mi NW 10.4 mph - N/A   Overcast
4:49 PM 45.1 °F 39.9 °F 41.0 °F 85% 29.93 in 10.0 mi WNW 10.4 mph - N/A   Overcast
5:08 PM 44.8 °F 39.9 °F 41.0 °F 87% 29.93 in 10.0 mi WNW 9.2 mph - N/A   Overcast
5:29 PM 44.8 °F 40.4 °F 41.0 °F 87% 29.93 in 10.0 mi WNW 8.1 mph - N/A   Overcast
5:48 PM 44.6 °F 39.7 °F 40.8 °F 87% 29.93 in 10.0 mi WNW 9.2 mph - N/A   Overcast
6:09 PM 44.6 °F 40.7 °F 40.1 °F 84% 29.93 in 10.0 mi WNW 6.9 mph - N/A   Overcast
6:28 PM 44.4 °F 41.2 °F 40.1 °F 85% 29.94 in 10.0 mi NW 5.8 mph - N/A   Overcast
6:48 PM 44.2 °F 41.8 °F 39.9 °F 85% 29.94 in 10.0 mi NW 4.6 mph - N/A   Overcast
7:09 PM 43.5 °F 40.9 °F 39.4 °F 85% 29.94 in 10.0 mi NNW 4.6 mph - N/A   Mostly Cloudy
7:28 PM 41.9 °F - 38.5 °F 88% 29.94 in 10.0 mi Calm Calm - N/A   Scattered Clouds
7:48 PM 41.9 °F - 38.7 °F 88% 29.94 in 10.0 mi Calm Calm - N/A   Clear
8:09 PM 41.0 °F - 38.1 °F 89% 29.94 in 10.0 mi Calm Calm - N/A   Clear
8:29 PM 41.2 °F - 37.9 °F 88% 29.94 in 10.0 mi Calm Calm - N/A   Clear
8:48 PM 39.9 °F 37.8 °F 37.4 °F 91% 29.94 in 10.0 mi SW 3.5 mph - N/A   Clear
9:08 PM 39.0 °F 36.8 °F 37.6 °F 95% 29.94 in 10.0 mi SSW 3.5 mph - N/A   Clear
9:28 PM 38.8 °F 35.4 °F 37.9 °F 97% 29.94 in 10.0 mi SSW 4.6 mph - N/A   Clear
9:48 PM 37.9 °F 34.4 °F 36.9 °F 96% 29.94 in 7.0 mi SW 4.6 mph - N/A   Clear
10:09 PM 38.1 °F 34.6 °F 37.2 °F 97% 29.94 in 10.0 mi SSW 4.6 mph - N/A   Clear
10:28 PM 37.4 °F 32.8 °F 36.5 °F 97% 29.93 in 7.0 mi SSW 5.8 mph - N/A   Clear
10:49 PM 36.0 °F 31.1 °F 35.2 °F 97% 29.94 in 5.0 mi SW 5.8 mph - N/A   Clear
11:09 PM 37.2 °F 32.6 °F 36.5 °F 97% 29.94 in 7.0 mi SSW 5.8 mph - N/A   Clear
11:28 PM 36.9 °F 31.4 °F 36.3 °F 98% 29.94 in 7.0 mi SSW 6.9 mph - N/A   Clear
11:49 PM 37.8 °F 32.5 °F 37.4 °F 99% 29.93 in 7.0 mi SSW 6.9 mph - N/A   Clear